Location: Dal�� Lhota
(48.7500°N, 14.0167°E)
Time: 06:50:39
(UTC+00:00)

Transit 2A - Pass Details

Date: 28 July 2021
Orbit: 594 x 964 km, 66.7° (Epoch: 24 September)

Event Time Altitude Azimuth Distance (km) Brightness Sun altitude
Rises 12:45:23 0° 327° (NNW) 3,116 9.1 54.5°
Reaches altitude 10° 12:48:10 10° 343° (NNW) 2,260 8.4 54.2°
Maximum altitude 12:52:12 22° 34° (NE) 1,659 7.6 53.7°
Drops below altitude 10° 12:56:32 10° 85° (E) 2,450 8.4 53.3°
Sets 12:59:40 0° 100° (E) 3,451 9.2 52.9°
